Weather History for O'Neill, NE

Change the Weather History Date:

Wednesday, May 13, 2009

  Actual Average Record
Temperature  
Mean Temperature 58 °F -  
Max Temperature 64 °F 69 °F 92 °F (2013)
Min Temperature 51 °F 43 °F 24 °F (1966)
Degree Days  
Heating Degree Days 8    
Growing Degree Days 8 (Base 50)    
Moisture  
Dew Point 46 °F    
Average Humidity 69    
Maximum Humidity 100    
Minimum Humidity 30    
Precipitation  
Precipitation 0.07 in - - ()
Sea Level Pressure  
Sea Level Pressure 29.70 in    
Wind  
Wind Speed 13 mph (NW)    
Max Wind Speed 36 mph    
Max Gust Speed 44 mph    
Visibility 8 miles    
Events Rain , Thunderstorm    
Averages and records for this station are not official NWS values.
T = Trace of Precipitation, MM = Missing Value Source: NWS Daily Summary

Daily Weather History Graph

Daily Weather History Graph

Search for Another Location

Airport:

Trip Planner

Search our weather history database for the weather conditions in past years. The results will help you decide how hot, cold, wet, or windy it might be!

Date:

Astronomy

May. 13, 2009 Rise Set
Actual Time 6:14 AM CDT 8:48 PM CDT
Civil Twilight 5:42 AM CDT 9:20 PM CDT
Nautical Twilight 5:02 AM CDT 10:00 PM CDT
Astronomical Twilight 4:17 AM CDT 10:45 PM CDT
Moon 12:29 AM CDT (5/13) 9:24 AM CDT (5/13)
Length of Visible Light 15h 37m
Length of Day
14h 33m
Waning Gibbous, 82% of the Moon is Illuminated
May 13
Waning Gibbous
May 17
Last Quarter
May 24
New
May 30
First Quarter
Jun 7
Full

Hourly Weather History & Observations

Time (CDT) Temp. Windchill Dew Point Humidity Pressure Visibility Wind Dir Wind Speed Gust Speed Precip Events Conditions
12:10 AM 60.8 °F - 59.0 °F 94% 29.62 in 5.0 mi West 15.0 mph - N/A   Overcast
12:30 AM 59.0 °F - 59.0 °F 100% 29.54 in 5.0 mi North 8.1 mph - N/A Rain Light Rain
12:50 AM 59.0 °F - 59.0 °F 100% 29.57 in 5.0 mi NNW 10.4 mph - 0.01 in   Overcast
1:10 AM 59.0 °F - 59.0 °F 100% 29.56 in 5.0 mi NNE 3.5 mph - N/A Rain Light Rain
1:30 AM 59.0 °F - 59.0 °F 100% 29.60 in 5.0 mi Calm Calm - N/A Rain Light Rain
1:50 AM 59.0 °F - 59.0 °F 100% 29.59 in 2.0 mi Calm Calm - 0.06 in Rain , Thunderstorm Rain
2:10 AM 59.0 °F - 59.0 °F 100% 29.58 in 3.0 mi NE 3.5 mph - 0.01 in Rain , Thunderstorm Light Thunderstorms and Rain
2:30 AM 59.0 °F - 59.0 °F 100% 29.57 in 3.0 mi SSE 6.9 mph - 0.01 in Thunderstorm Mostly Cloudy
2:50 AM 59.0 °F - 59.0 °F 100% 29.57 in 4.0 mi SSE 8.1 mph - 0.01 in Thunderstorm Mostly Cloudy
3:10 AM 59.0 °F - 59.0 °F 100% 29.56 in 3.0 mi SE 10.4 mph - N/A   Scattered Clouds
3:30 AM 59.0 °F - 59.0 °F 100% 29.56 in 3.0 mi SSE 8.1 mph - N/A   Scattered Clouds
3:50 AM 59.0 °F - 59.0 °F 100% 29.56 in 4.0 mi SSE 6.9 mph - N/A   Clear
4:10 AM 59.0 °F - 57.2 °F 94% 29.57 in 4.0 mi SSE 6.9 mph - N/A   Clear
4:30 AM 57.2 °F - 57.2 °F 100% 29.58 in 3.0 mi WSW 4.6 mph - N/A   Clear
4:50 AM 57.2 °F - 57.2 °F 100% 29.59 in 3.0 mi WNW 8.1 mph - N/A   Mostly Cloudy
5:10 AM 57.2 °F - 57.2 °F 100% 29.59 in 4.0 mi WNW 6.9 mph - N/A   Mostly Cloudy
5:30 AM 57.2 °F - 57.2 °F 100% 29.60 in 5.0 mi Calm Calm - N/A   Mostly Cloudy
5:50 AM 55.4 °F - 55.4 °F 100% 29.61 in 7.0 mi WNW 6.9 mph - N/A   Scattered Clouds
6:10 AM 55.4 °F - 53.6 °F 94% 29.62 in 10.0 mi NW 11.5 mph - N/A   Clear
6:30 AM 53.6 °F - 50.0 °F 88% 29.62 in 10.0 mi NW 11.5 mph - N/A   Clear
6:50 AM 53.6 °F - 50.0 °F 88% 29.64 in 10.0 mi NW 9.2 mph - N/A   Clear
7:10 AM 51.8 °F - 50.0 °F 94% 29.64 in 10.0 mi NNW 10.4 mph - N/A   Clear
7:30 AM 51.8 °F - 48.2 °F 88% 29.66 in 10.0 mi NNW 9.2 mph - N/A   Clear
7:50 AM 51.8 °F - 50.0 °F 94% 29.67 in 10.0 mi NW 8.1 mph - N/A   Clear
8:10 AM 51.8 °F - 50.0 °F 94% 29.67 in 10.0 mi NW 9.2 mph - N/A   Clear
8:30 AM 53.6 °F - 50.0 °F 88% 29.68 in 10.0 mi NW 12.7 mph - N/A   Clear
8:50 AM 55.4 °F - 50.0 °F 82% 29.69 in 10.0 mi NW 11.5 mph - N/A   Clear
9:10 AM 53.6 °F - 48.2 °F 82% 29.69 in 10.0 mi NW 11.5 mph - N/A   Clear
9:30 AM 55.4 °F - 50.0 °F 82% 29.69 in 10.0 mi NW 15.0 mph - N/A   Clear
9:50 AM 57.2 °F - 48.2 °F 72% 29.69 in 10.0 mi NW 17.3 mph 21.9 mph N/A   Clear
10:10 AM 57.2 °F - 48.2 °F 72% 29.70 in 10.0 mi NW 17.3 mph 24.2 mph N/A   Clear
10:30 AM 57.2 °F - 48.2 °F 72% 29.70 in 10.0 mi NW 17.3 mph - N/A   Clear
10:50 AM 59.0 °F - 46.4 °F 63% 29.71 in 10.0 mi NW 20.7 mph 26.5 mph N/A   Clear
11:10 AM 59.0 °F - 44.6 °F 59% 29.72 in 10.0 mi NW 18.4 mph 24.2 mph N/A   Clear
11:30 AM 59.0 °F - 44.6 °F 59% 29.72 in 10.0 mi WNW 16.1 mph - N/A   Clear
11:50 AM 59.0 °F - 44.6 °F 59% 29.73 in 10.0 mi NW 17.3 mph 21.9 mph N/A   Clear
12:10 PM 60.8 °F - 44.6 °F 55% 29.72 in 10.0 mi NW 18.4 mph 23.0 mph N/A   Clear
12:30 PM 60.8 °F - 42.8 °F 52% 29.73 in 10.0 mi WNW 18.4 mph 25.3 mph N/A   Clear
12:50 PM 62.6 °F - 42.8 °F 48% 29.74 in 10.0 mi WNW 21.9 mph 29.9 mph N/A   Clear
1:10 PM 62.6 °F - 41.0 °F 45% 29.74 in 10.0 mi NW 23.0 mph 32.2 mph N/A   Clear
1:30 PM 60.8 °F - 41.0 °F 48% 29.75 in 10.0 mi WNW 17.3 mph 26.5 mph N/A   Clear
1:50 PM 62.6 °F - 41.0 °F 45% 29.75 in 10.0 mi WNW 25.3 mph 31.1 mph N/A   Clear
2:10 PM 62.6 °F - 37.4 °F 39% 29.76 in 10.0 mi WNW 20.7 mph 26.5 mph N/A   Clear
2:30 PM 64.4 °F - 35.6 °F 34% 29.78 in 10.0 mi NW 24.2 mph 33.4 mph N/A   Scattered Clouds
2:50 PM 64.4 °F - 33.8 °F 32% 29.78 in 10.0 mi WNW 25.3 mph 35.7 mph N/A   Clear
3:10 PM 64.4 °F - 33.8 °F 32% 29.78 in 10.0 mi WNW 19.6 mph 35.7 mph N/A   Scattered Clouds
3:30 PM 64.4 °F - 33.8 °F 32% 29.78 in 10.0 mi WNW 18.4 mph 32.2 mph N/A   Scattered Clouds
3:50 PM 62.6 °F - 33.8 °F 34% 29.80 in 10.0 mi WNW 25.3 mph 31.1 mph N/A   Scattered Clouds
4:10 PM 62.6 °F - 33.8 °F 34% 29.80 in 10.0 mi West 23.0 mph 32.2 mph N/A   Scattered Clouds
4:30 PM 60.8 °F - 32.0 °F 34% 29.81 in 10.0 mi West 24.2 mph 36.8 mph N/A   Scattered Clouds
4:50 PM 62.6 °F - 32.0 °F 32% 29.82 in 10.0 mi WNW 27.6 mph 36.8 mph N/A   Scattered Clouds
5:10 PM 62.6 °F - 30.2 °F 30% 29.82 in 10.0 mi WNW 25.3 mph 33.4 mph N/A   Scattered Clouds
5:30 PM 62.6 °F - 30.2 °F 30% 29.82 in 10.0 mi West 18.4 mph 31.1 mph N/A   Clear
5:50 PM 62.6 °F - 30.2 °F 30% 29.84 in 10.0 mi NW 35.7 mph 41.4 mph N/A   Scattered Clouds
6:10 PM 60.8 °F - 30.2 °F 31% 29.85 in 10.0 mi WNW 29.9 mph 41.4 mph N/A   Clear
6:30 PM 59.0 °F - 32.0 °F 36% 29.88 in 10.0 mi NW 27.6 mph 43.7 mph N/A   Clear
6:50 PM 57.2 °F - 32.0 °F 38% 29.87 in 10.0 mi NW 24.2 mph 38.0 mph N/A   Clear
7:10 PM 55.4 °F - 30.2 °F 38% 29.88 in 10.0 mi NW 28.8 mph 38.0 mph N/A   Clear
7:30 PM 55.4 °F - 32.0 °F 41% 29.89 in 10.0 mi NW 31.1 mph 42.6 mph N/A   Clear
7:50 PM 51.8 °F - 32.0 °F 47% 29.91 in 10.0 mi NW 26.5 mph 40.3 mph N/A   Clear
8:10 PM 50.0 °F - 32.0 °F 50% 29.93 in 10.0 mi NW 26.5 mph 33.4 mph N/A   Clear
8:30 PM 50.0 °F - 32.0 °F 50% 29.94 in 10.0 mi WNW 23.0 mph 27.6 mph N/A   Clear
8:50 PM 48.2 °F - 32.0 °F 54% 29.95 in 10.0 mi NW 23.0 mph 28.8 mph N/A   Clear
9:10 PM 46.4 °F 39.0 °F 32.0 °F 57% 29.96 in 10.0 mi NW 19.6 mph 26.5 mph N/A   Clear
9:30 PM 46.4 °F 39.0 °F 32.0 °F 57% 29.96 in 10.0 mi WNW 19.6 mph 25.3 mph N/A   Clear
9:50 PM 46.4 °F 39.5 °F 32.0 °F 57% 29.97 in 10.0 mi WNW 17.3 mph 24.2 mph N/A   Clear
10:10 PM 44.6 °F 36.6 °F 32.0 °F 61% 29.98 in 10.0 mi NW 19.6 mph 26.5 mph N/A   Clear
10:30 PM 44.6 °F 34.7 °F 32.0 °F 61% 30.00 in 10.0 mi WNW 29.9 mph 40.3 mph N/A   Clear
10:50 PM 44.6 °F 36.1 °F 32.0 °F 61% 30.01 in 10.0 mi WNW 21.9 mph 35.7 mph N/A   Clear
11:10 PM 42.8 °F 34.5 °F 32.0 °F 66% 30.02 in 10.0 mi WNW 18.4 mph 26.5 mph N/A   Clear
11:30 PM 42.8 °F 34.0 °F 32.0 °F 66% 30.04 in 10.0 mi WNW 20.7 mph 25.3 mph N/A   Clear
11:50 PM 42.8 °F 34.3 °F 32.0 °F 66% 30.04 in 10.0 mi WNW 19.6 mph 27.6 mph N/A   Clear